Weather History for K1P1 - February, 2014

Change the Weather History Date:

Monday, February 24, 2014

  Actual Average (KLEB) Record (KLEB)
Temperature  
Mean Temperature 25 °F -  
Max Temperature 34 °F 34 °F - (-1)
Min Temperature 16 °F 16 °F - (-1)
Degree Days  
Heating Degree Days 40    
Moisture  
Dew Point 10 °F    
Average Humidity 52    
Maximum Humidity 81    
Minimum Humidity 31    
Precipitation  
Precipitation 0.00 in - - ()
Sea Level Pressure  
Sea Level Pressure 29.77 in    
Wind  
Wind Speed 8 mph (WNW)    
Max Wind Speed 18 mph    
Max Gust Speed 31 mph    
Visibility 10 miles    
Events Snow    
Averages and records for this station are not official NWS values.
T = Trace of Precipitation, MM = Missing Value Source: NWS Daily Summary

Daily Weather History Graph

Daily Weather History Graph

Search for Another Location

Airport or City:

Trip Planner

Search our weather history database for the weather conditions in past years. The results will help you decide how hot, cold, wet, or windy it might be!

Date:

Astronomy

Feb. 24, 2014 Rise Set
Actual Time 6:31 AM EST 5:29 PM EST
Civil Twilight 6:02 AM EST 5:58 PM EST
Nautical Twilight 5:29 AM EST 6:31 PM EST
Astronomical Twilight 4:56 AM EST 7:04 PM EST
Moon 2:33 AM EST (2/24) 12:21 PM EST (2/24)
Length of Visible Light 11h 55m
Length of Day
10h 57m
Waning Crescent, 28% of the Moon is Illuminated
Feb 24
Waning Crescent
Mar 1
New
Mar 8
First Quarter
Mar 16
Full
Mar 23
Last Quarter

Hourly Weather History & Observations

Time (EST) Temp. Windchill Dew Point Humidity Pressure Visibility Wind Dir Wind Speed Gust Speed Precip Events Conditions
12:15 AM 28.6 °F - 22.1 °F 77% 29.73 in 10.0 mi Calm Calm - N/A   Unknown
12:35 AM 29.5 °F - 21.4 °F 72% 29.72 in 10.0 mi Calm Calm - N/A   Unknown
12:55 AM 28.4 °F - 21.7 °F 76% 29.72 in 10.0 mi Calm Calm - N/A   Unknown
1:15 AM 31.1 °F - 17.6 °F 57% 29.72 in 10.0 mi Calm Calm - N/A   Unknown
1:35 AM 33.6 °F 27.5 °F 8.6 °F 35% 29.72 in 10.0 mi WNW 6.9 mph - N/A   Unknown
1:55 AM 34.0 °F 29.8 °F 7.2 °F 33% 29.72 in 10.0 mi West 4.6 mph - N/A   Unknown
2:15 AM 33.4 °F 25.4 °F 5.5 °F 31% 29.72 in 10.0 mi West 10.4 mph - N/A   Unknown
2:35 AM 32.9 °F 25.3 °F 5.5 °F 32% 29.72 in 10.0 mi West 9.2 mph 17.3 mph N/A   Unknown
2:55 AM 32.4 °F 24.0 °F 5.0 °F 32% 29.72 in 10.0 mi West 10.4 mph 16.1 mph N/A   Unknown
3:15 AM 32.4 °F 25.3 °F 6.3 °F 33% 29.73 in 10.0 mi West 8.1 mph 19.6 mph N/A   Unknown
3:35 AM 32.0 °F 23.0 °F 8.2 °F 37% 29.73 in 10.0 mi West 11.5 mph 19.6 mph N/A   Unknown
3:55 AM 30.9 °F 25.2 °F 10.4 °F 42% 29.74 in 10.0 mi WNW 5.8 mph - N/A   Unknown
4:15 AM 30.2 °F 21.9 °F 11.3 °F 45% 29.74 in 10.0 mi WNW 9.2 mph - N/A   Unknown
4:35 AM 29.3 °F 20.2 °F 11.8 °F 48% 29.74 in 10.0 mi WNW 10.4 mph 17.3 mph N/A   Unknown
4:55 AM 29.1 °F 18.4 °F 12.0 °F 49% 29.75 in 10.0 mi NW 13.8 mph 18.4 mph N/A   Unknown
5:15 AM 29.3 °F 20.8 °F 11.8 °F 48% 29.76 in 10.0 mi West 9.2 mph - N/A   Unknown
5:35 AM 28.8 °F 20.9 °F 11.5 °F 49% 29.76 in 10.0 mi West 8.1 mph - N/A   Unknown
5:55 AM 28.4 °F 19.7 °F 11.3 °F 49% 29.76 in 10.0 mi West 9.2 mph 17.3 mph N/A   Unknown
6:15 AM 27.5 °F 18.6 °F 13.6 °F 56% 29.76 in 10.0 mi NW 9.2 mph - N/A   Unknown
6:35 AM 26.1 °F 18.4 °F 16.7 °F 68% 29.76 in 10.0 mi WNW 6.9 mph - N/A   Unknown
6:55 AM 25.7 °F 21.5 °F 16.5 °F 68% 29.76 in 10.0 mi WNW 3.5 mph - N/A   Unknown
7:15 AM 25.7 °F 19.0 °F 16.3 °F 68% 29.76 in 10.0 mi WNW 5.8 mph - N/A   Unknown
7:35 AM 26.6 °F 20.0 °F 14.9 °F 61% 29.76 in 10.0 mi WNW 5.8 mph - N/A   Unknown
7:55 AM 26.6 °F 16.2 °F 14.0 °F 59% 29.76 in 10.0 mi WNW 11.5 mph 16.1 mph N/A   Unknown
8:15 AM 26.1 °F 15.0 °F 14.9 °F 63% 29.77 in 5.0 mi WNW 12.7 mph 18.4 mph N/A Snow Light Snow
8:35 AM 25.7 °F 17.1 °F 15.8 °F 66% 29.77 in 10.0 mi NNW 8.1 mph - N/A   Unknown
8:55 AM 26.2 °F 18.6 °F 14.2 °F 60% 29.76 in 10.0 mi WNW 6.9 mph - N/A   Unknown
9:15 AM 27.1 °F 20.7 °F 12.6 °F 54% 29.75 in 10.0 mi WNW 5.8 mph - N/A   Unknown
9:35 AM 27.5 °F 17.4 °F 10.2 °F 48% 29.75 in 10.0 mi WNW 11.5 mph - N/A   Unknown
9:55 AM 27.9 °F 16.8 °F 9.5 °F 46% 29.74 in 10.0 mi WNW 13.8 mph 19.6 mph N/A   Unknown
10:15 AM 28.2 °F 18.9 °F 9.7 °F 46% 29.74 in 10.0 mi WNW 10.4 mph - N/A   Unknown
10:35 AM 27.9 °F 19.1 °F 10.6 °F 48% 29.73 in 10.0 mi WNW 9.2 mph 19.6 mph N/A   Unknown
10:55 AM 28.4 °F 16.6 °F 6.8 °F 40% 29.73 in 10.0 mi West 16.1 mph 25.3 mph N/A   Unknown
11:15 AM 30.4 °F 22.2 °F 6.3 °F 36% 29.72 in 10.0 mi West 9.2 mph 18.4 mph N/A   Unknown
11:35 AM 27.5 °F 16.3 °F 11.3 °F 51% 29.73 in 10.0 mi NW 13.8 mph 19.6 mph N/A   Unknown
11:55 AM 26.4 °F 17.3 °F 12.4 °F 55% 29.74 in 7.0 mi NW 9.2 mph 19.6 mph N/A Snow Light Snow
12:15 PM 26.4 °F 18.0 °F 15.4 °F 63% 29.74 in 7.0 mi WNW 8.1 mph 17.3 mph N/A Snow Light Snow
12:35 PM 26.2 °F 15.2 °F 12.2 °F 55% 29.73 in 10.0 mi West 12.7 mph 20.7 mph N/A   Unknown
12:55 PM 26.1 °F 15.0 °F 10.0 °F 51% 29.73 in 10.0 mi West 12.7 mph 26.5 mph N/A   Unknown
1:15 PM 26.4 °F 13.2 °F 6.6 °F 43% 29.73 in 10.0 mi West 18.4 mph 28.8 mph N/A   Unknown
1:35 PM 27.0 °F 15.2 °F 5.5 °F 40% 29.72 in 10.0 mi WNW 15.0 mph 21.9 mph N/A   Unknown
1:55 PM 27.1 °F 16.4 °F 2.8 °F 35% 29.71 in 10.0 mi WNW 12.7 mph 24.2 mph N/A   Unknown
2:15 PM 27.9 °F 15.5 °F 2.1 °F 33% 29.71 in 10.0 mi West 17.3 mph 25.3 mph N/A   Unknown
2:35 PM 28.4 °F 17.5 °F 1.9 °F 32% 29.71 in 10.0 mi West 13.8 mph 31.1 mph N/A   Unknown
2:55 PM 28.2 °F 17.7 °F 3.6 °F 35% 29.71 in 10.0 mi West 12.7 mph 28.8 mph N/A   Unknown
3:15 PM 27.7 °F 16.6 °F 5.9 °F 40% 29.72 in 10.0 mi WNW 13.8 mph 25.3 mph N/A   Unknown
3:35 PM 25.5 °F 14.3 °F 7.5 °F 47% 29.72 in 10.0 mi West 12.7 mph 20.7 mph N/A   Unknown
3:55 PM 25.7 °F 14.6 °F 8.6 °F 48% 29.72 in 10.0 mi WNW 12.7 mph 19.6 mph N/A   Unknown
4:15 PM 25.5 °F 16.2 °F 10.2 °F 52% 29.72 in 10.0 mi WNW 9.2 mph 18.4 mph N/A   Unknown
4:35 PM 25.7 °F 14.0 °F 7.7 °F 47% 29.73 in 10.0 mi West 13.8 mph 19.6 mph N/A   Unknown
4:55 PM 26.4 °F 14.0 °F 3.4 °F 37% 29.74 in 10.0 mi West 16.1 mph 29.9 mph N/A   Unknown
5:15 PM 25.3 °F 15.3 °F 3.6 °F 39% 29.74 in 10.0 mi West 10.4 mph 23.0 mph N/A   Unknown
5:35 PM 24.8 °F 14.0 °F 4.5 °F 42% 29.75 in 10.0 mi West 11.5 mph 28.8 mph N/A   Unknown
5:55 PM 24.1 °F 12.0 °F 4.8 °F 44% 29.76 in 10.0 mi West 13.8 mph 19.6 mph N/A   Unknown
6:15 PM 23.0 °F 12.4 °F 5.7 °F 48% 29.78 in 10.0 mi West 10.4 mph 28.8 mph N/A   Unknown
6:35 PM 22.8 °F 13.6 °F 5.9 °F 48% 29.79 in 10.0 mi WNW 8.1 mph 26.5 mph N/A   Unknown
6:55 PM 22.1 °F 9.5 °F 7.5 °F 54% 29.80 in 10.0 mi West 13.8 mph 19.6 mph N/A   Unknown
7:15 PM 22.1 °F 12.0 °F 7.0 °F 52% 29.81 in 10.0 mi WNW 9.2 mph 18.4 mph N/A   Unknown
7:35 PM 21.9 °F 9.8 °F 7.7 °F 54% 29.82 in 10.0 mi WNW 12.7 mph 23.0 mph N/A   Unknown
7:55 PM 21.2 °F 8.9 °F 10.6 °F 64% 29.83 in 10.0 mi WNW 12.7 mph 19.6 mph N/A Snow Light Snow
8:15 PM 20.8 °F 8.4 °F 11.7 °F 68% 29.84 in 7.0 mi WNW 12.7 mph 16.1 mph N/A Snow Light Snow
8:35 PM 19.4 °F 10.4 °F 14.4 °F 81% 29.86 in 2.5 mi West 6.9 mph - N/A Snow Light Snow
8:55 PM 19.4 °F 7.9 °F 13.5 °F 78% 29.86 in 4.0 mi West 10.4 mph - N/A Snow Light Snow
9:15 PM 19.2 °F 9.3 °F 11.8 °F 73% 29.87 in 2.5 mi WNW 8.1 mph 16.1 mph N/A Snow Light Snow
9:35 PM 19.4 °F 11.5 °F 9.0 °F 64% 29.88 in 10.0 mi NW 5.8 mph - N/A   Unknown
9:55 PM 18.7 °F 6.3 °F 7.5 °F 62% 29.88 in 10.0 mi WNW 11.5 mph - N/A   Unknown
10:15 PM 18.9 °F 7.2 °F 7.0 °F 60% 29.88 in 10.0 mi West 10.4 mph - N/A   Unknown
10:35 PM 18.3 °F 8.2 °F 8.4 °F 65% 29.88 in 7.0 mi West 8.1 mph - N/A Snow Light Snow
10:55 PM 18.0 °F 9.8 °F 8.2 °F 66% 29.89 in 10.0 mi WNW 5.8 mph - N/A   Unknown
11:15 PM 17.4 °F 10.4 °F 7.7 °F 66% 29.88 in 10.0 mi WNW 4.6 mph - N/A   Unknown
11:35 PM 16.7 °F - 7.5 °F 67% 29.89 in 10.0 mi Calm Calm - N/A   Unknown
11:55 PM 16.5 °F 11.0 °F 7.7 °F 68% 29.88 in 10.0 mi West 3.5 mph - N/A   Unknown